Location: Katabanda
(1.2833°N, 32.2000°E)
Time: 05:49:40
(UTC+00:00)

Daily predictions for brighter satellites

Satellite Brightness Start Highest point End
(mag) Time Altitude Azimuth Time Altitude Azimuth Time Altitude Azimuth
Ariane H10+ 4.2 00:38:59 51° SE 00:38:59 51° SE 00:54:46 10° E
ARIANE 5 R/B 4.0 01:11:03 81° W 01:11:56 90° NNE 06:15:11 10° E
Cosmos 2237 Rocket 4.3 01:28:57 10° SSE 01:33:20 23° ESE 01:37:41 10° NE
ADEOS Rocket 3.4 01:47:31 10° S 01:55:17 83° WSW 01:57:00 59° NNW
ARIANE 5 DEB (SYLDA 5A) 4.1 02:02:04 27° E 02:02:04 27° E 02:03:10 10° E
ATLAS 5 CENTAUR R/B 4.1 02:07:26 23° SW 02:07:26 23° SW 02:11:18 10° SSW
Cosmos 1980 4.1 02:00:28 10° S 02:06:03 60° ESE 02:11:36 10° NNE
Ariane H10-3 3.5 02:11:53 38° NE 02:11:53 38° NE 02:17:25 10° E
Intelsat 5-3 Rocket 4.0 02:12:29 52° WNW 02:14:08 64° NNW 02:30:09 10° ENE
Centaur D-1AR AC-39 4.4 02:09:52 10° SW 02:16:35 21° S 02:19:58 10° SE
Meteor 1-31 Rocket 3.0 02:18:09 67° ESE 02:18:09 67° ESE 02:22:01 10° S
Cosmos 1674 4.4 02:21:59 23° S 02:21:59 23° S 02:23:28 10° S
ARIANE 44L R/B 3.2 02:22:25 34° ENE 02:22:25 34° ENE 02:25:30 10° E
Cosmos 2346 Rocket 4.4 02:22:17 48° NW 02:23:45 60° W 02:29:55 10° S
Cosmos 1354 Rocket 4.0 02:23:56 55° WSW 02:23:56 55° WSW 02:28:59 10° S
Cosmos 540 Rocket 3.6 02:19:38 10° S 02:24:43 72° ESE 02:29:47 10° NNE
Tsikada Rocket 4.0 02:19:21 13° N 02:24:53 78° E 02:31:06 10° S
USA 267 4.5 02:19:59 10° ESE 02:25:50 35° NE 02:31:24 11° N
Cosmos 2263 Rocket 3.0 02:27:15 32° SW 02:27:15 32° SW 02:31:17 10° S
Meteor 2-10 4.2 02:23:01 10° S 02:28:47 89° E 02:34:28 10° N
ATLAS CENTAUR R/B 2.4 02:25:39 10° S 02:29:33 44° ESE 02:33:13 10° NE
Cosmos 1816 Rocket 4.3 02:26:25 24° NNW 02:30:14 75° W 02:36:27 10° S
Cosmos 1953 4.2 02:31:13 10° SSE 02:34:47 30° E 02:38:18 10° NNE
Landsat 5 3.5 02:34:57 10° S 02:39:29 86° WSW 02:42:15 23° NNW
IRIDIUM 106 4.2 02:35:45 10° S 02:40:58 90° W 02:46:11 10° N
Cosmos 1536 Rocket 3.7 02:40:36 45° WNW 02:41:18 50° W 02:45:38 10° S
Cosmos 1626 1.9 02:42:44 43° NNW 02:43:49 75° W 02:47:30 10° S
Ariane H10 2.7 02:43:04 40° WNW 02:44:19 65° N 02:46:45 10° ENE
CENTAUR R/B 3.4 02:40:33 10° S 02:45:18 39° ESE 02:50:19 10° NE
USA 307 4.3 02:47:48 22° NNW 02:47:48 22° NNW 02:49:45 10° N
Cosmos 1726 2.1 02:42:35 10° SSW 02:46:11 55° W 02:47:12 40° NNW
ADEOS 4.0 02:44:39 23° NNW 02:47:17 37° WNW 02:52:05 10° SW
Ariane 44LP R/B 3.3 02:46:28 23° SW 02:47:37 33° SSE 02:52:45 10° E
BREEZE-M R/B 3.0 02:50:54 30° WNW 02:52:54 56° WSW 02:55:58 10° SSE
H-II Stage 2 2.7 02:52:52 41° WNW 02:53:45 80° SSW 03:00:53 10° ESE
ARIANE 5 R/B 0.0 02:54:15 66° WNW 02:54:30 85° N 02:57:54 10° E
USA 308 4.4 02:56:10 20° NNW 02:56:10 20° NNW 02:58:09 10° N
Meteor 1-24 Rocket 4.0 02:49:30 10° N 02:55:10 73° E 03:01:04 10° S
deb Chang Zheng 4 3.5 02:52:23 10° N 02:56:30 56° WNW 03:00:39 10° SSW
CZ-4B R/B 3.8 02:54:45 10° SE 02:57:22 22° ENE 03:00:02 10° NNE
Cosmos 841 Rocket 3.6 02:52:28 10° SSW 02:57:25 48° WNW 03:02:20 10° N
USA 238 DEB 3.6 02:50:56 10° SSW 02:57:26 87° ESE 03:03:55 10° NNE
USA 238 3.6 02:51:04 10° SSW 02:57:33 86° ESE 03:04:02 10° NNE
Meteor PRIRODA 3.4 02:57:07 10° N 03:00:42 73° WNW 03:04:20 10° SSW
COSMOS 2455 3.4 02:58:28 22° NW 03:01:47 39° WSW 03:07:18 10° S
CZ-3B Rocket 3.3 02:59:50 14° WSW 03:02:50 23° SSW 03:05:49 10° SSE
ATLAS 2A CENTAUR R/B 3.3 02:59:58 20° NW 03:03:37 72° NNE 03:24:23 10° ESE
SL-16 R/B 2.9 02:58:59 10° S 03:04:32 59° ESE 03:10:04 10° NNE
Cosmos 1758 4.2 03:01:30 10° SW 03:04:54 27° W 03:06:49 19° NW
Cosmos 1570 Rocket 4.2 03:04:57 10° SSW 03:09:56 45° WNW 03:14:53 10° N
COSMO-SKYMED 1 4.1 03:06:24 10° SE 03:10:24 37° ENE 03:14:23 10° N
SL-14 R/B 3.8 03:08:39 11° NNW 03:12:11 38° W 03:15:58 10° SSW
Cosmos 1464 Rocket 4.2 03:07:12 10° SSW 03:13:05 48° W 03:18:56 10° NNW
FALCON 9 DEB 2.8 03:11:47 10° SW 03:14:57 72° NW 03:18:06 10° NNE
Cosmos 2237 Rocket 3.1 03:12:40 10° SW 03:17:05 24° WNW 03:21:31 10° NNW
Cosmos 1892 Rocket 4.2 03:13:21 10° N 03:17:41 59° E 03:22:04 10° SSE
Spelda 3.8 03:17:08 18° NW 03:18:15 26° N 03:21:06 10° ENE
Delta 202 4.4 03:12:04 10° WSW 03:18:17 81° SSE 03:27:30 10° ENE
CSL-04 DEB 4.5 03:15:28 10° S 03:19:44 83° W 03:24:04 10° NNW
Cosmos 1844 Rocket 2.6 03:15:03 10° NNW 03:20:34 73° WSW 03:26:07 10° S
Centaur AC-69 3.2 03:16:50 13° WNW 03:24:04 76° SSW 03:26:46 10° ESE
Centaur AC-116 4.0 03:23:36 10° WSW 03:25:08 17° SSW 03:27:03 10° SSE
Lacrosse 4 Rocket 2.1 03:23:55 10° SW 03:27:28 30° WNW 03:31:06 10° N
Cosmos 1544 Rocket 4.2 03:23:57 10° SSW 03:27:54 34° W 03:31:48 10° NNW
FALCON 9 DEB 3.7 03:27:24 10° WSW 03:30:13 30° NW 03:33:01 10° N
APEX 4.5 03:30:39 10° WNW 03:31:53 13° WSW 03:33:13 10° SW
ATLAS 2A CENTAUR R/B 3.1 03:29:52 10° NW 03:32:52 71° NNE 03:43:21 10° ESE
SJ 16-02 1.3 03:29:36 10° NNW 03:33:57 78° W 03:38:20 10° S
CZ-4B R/B 4.3 03:35:15 10° NW 03:37:41 16° W 03:40:12 10° WSW
PAYLOAD B 4.5 03:33:45 10° NNE 03:39:20 81° ESE 03:44:57 10° S
